星链-33589 (STARLINK-33589)

导读

STARLINK-33589是美国SpaceX公司星链(Starlink)星座的组网卫星,于2025年1月21日发射入轨。星链星座旨在构建全球低轨宽带互联网,为基础设施匮乏地区提供高速低延迟网络服务。该卫星采用量产化设计,配备霍尔推进器与自主避撞系统,服役结束后会主动离轨再入大气焚毁,属于星链星座扩张组网的组成单元,服务全球卫星互联网覆盖建设。

基本信息
目录编号:
62759
目录名称:
STARLINK-33589
国际标识:
2025-015B
轨道中心:
EARTH
卫星名称:
星链-33589
卫星全名:
星链-33589 (STARLINK-33589)
卫星状态:
在轨 (已飞行591 天)
发射日期:
2025-01-21 UTC
国别 :
美国 (US)
星等 :
--
轨道信息
数据来源 国际轨道数据
星历时间: 2026-09-04T05:59:16+0800
18小时前
查看轨道信息
半长轴: 6848.822km
偏心率: 0.0001589
轨道倾角: 53.157°
近地点辐角 98.833°
升交点赤经 213.536°
平近点角 261.285°
近地点: 469.596km
远地点: 471.774km
周期: 94.012分钟
每日圈数: 15.317185
详细信息
固有亮度:
5
最大亮度:
2.5
卫星平台:
Starlink V1.0
覆盖范围:
全球
运营商:
太空探索技术公司
运营商所在国:
美国
制造商(研发单位):
太空探索技术公司
制造商所在国:
美国
使用方式:
暂无
卫星简介
Starlink 计划是 SpaceX 推出的全球卫星互联网项目,通过发射低轨道卫星,为全球尤其是偏远地区提供高速、低延迟的互联网服务。自 2019 年起,Starlink 已部署数千颗卫星,旨在缩小全球数字鸿沟,推动互联网普及。该项目还为军事、航空等行业提供通信支持,带来广泛经济效益。
2D轨道图
3D轨道图
轨道高度分析图
轨道倾角分析图
轨道综合分析图
查看轨道综合分析图
交会数据列表
事件ID 空间交会对象 最接近时刻(TCA) 交会距离 交会风险概率(CRP) 交会风险指数(CRI) 操作
CDM_260906-214004-836006-275921
2026-09-06T
21:40:33+0000
0.212 km
中距离
4.66735E-4 高风险 0.88
CDM_260906-161104-836006-275921
2026-09-06T
16:11:42+0000
1.422 km
极远距离
3.169447E-6 低风险 0.45
CDM_260906-174504-836006-275921
2026-09-06T
17:45:40+0000
1.829 km
极远距离
1.530746E-6 低风险 0.39
CDM_260905-220606-275906-965121
2026-09-05T
22:06:36+0000
2.898 km
极远距离
1.182515E-6 低风险 0.36
CDM_260905-201506-275906-488021
OBJECT E (64880)
2026-09-05T
20:15:50+0000
2.701 km
极远距离
9.184966E-7 极低风险 0.34